Regional Weather Roundup
Issued by NWS

Home | Current Version | Previous Version | Text Only | Print | Product List | Glossary Off
Versions: 1 2 3 4 5 6 7 8 9 10 11 12 13 14 15 16 17 18 19 20 21 22 23 24 25 26 27 28 29 30 31 32 33 34 35 36 37 38 39 40 41 42 43 44 45 46 47 48 49 50

000
ASUS43 KOAX 281802
RWRNE

WEATHER ROUNDUP FOR NEBRASKA
NATIONAL WEATHER SERVICE OMAHA NE
1200 PM CST WED JAN 28 2015

NOTES: SATELLITE DATA IS BEING USED TO AUGMENT CLOUD COVER ABOVE
       12000 FEET.
       "FAIR" INDICATES FEW OR NO CLOUDS BELOW 12,000 FEET WITH NO
       SIGNIFICANT WEATHER AND/OR OBSTRUCTIONS TO VISIBILITY.

  * THESE STATIONS DO NOT REPORT WEATHER SUCH AS RAIN...SNOW OR FOG.

NEZ001>004-019>022-054>056-281900-
NEBRASKA PANHANDLE

CITY           SKY/WX    TMP DP  RH WIND       PRES   REMARKS
SCOTTSBLUFF      N/A    N/A N/A N/A MISG      29.98R
ALLIANCE         N/A     56  50  81 NW28G39   29.91S
6HR MIN TEMP:  42; 6HR MAX TEMP:  56;

CHADRON        CLOUDY    52  34  50 NW18G26   29.92R
6HR MIN TEMP:  36; 6HR MAX TEMP:  54;

SIDNEY         SUNNY     57  32  38 NW33G48   29.96F
6HR MIN TEMP:  41; 6HR MAX TEMP:  57;

$$

NEZ057>060-069>072-079>082-281900-
SOUTHWEST NEBRASKA

CITY           SKY/WX    TMP DP  RH WIND       PRES   REMARKS
NORTH PLATTE   SUNNY     63  32  31 NW30G37   29.85F
6HR MIN TEMP:  29; 6HR MAX TEMP:  63;

IMPERIAL       SUNNY     63  29  27 NW32G43   29.91F
6HR MIN TEMP:  37; 6HR MAX TEMP:  63;

LEXINGTON      MOSUNNY   60  34  37 NW18G29   29.81F
MCCOOK         PTSUNNY   62  34  35 NW20G29   29.87F
6HR MIN TEMP:  31; 6HR MAX TEMP:  62;

$$

NEZ005>010-023>029-035>040-094-281900-
NORTH CENTRAL NEBRASKA

CITY           SKY/WX    TMP DP  RH WIND       PRES   REMARKS
VALENTINE      SUNNY     59  32  36 NW23G29   29.78S
6HR MIN TEMP:  33; 6HR MAX TEMP:  59;

AINSWORTH      SUNNY     58  31  36 NW24G31   29.77R
BROKEN BOW     MOSUNNY   64  35  34 NW17      29.77F
6HR MIN TEMP:  47; 6HR MAX TEMP:  64;

ORD            PTSUNNY   57  33  40 NW17      29.74F
6HR MIN TEMP:  23; 6HR MAX TEMP:  58;

$$

NEZ041-046>049-061>064-073>077-083>087-281900-
SOUTH CENTRAL NEBRASKA

CITY           SKY/WX    TMP DP  RH WIND       PRES   REMARKS
GRAND ISLAND   FAIR      54  35  48 W8        29.76F
6HR MIN TEMP:  24; 6HR MAX TEMP:  54;

AURORA         FAIR      52  34  49 W5        29.75F
HASTINGS       FAIR      62  31  31 NW16      29.76F
6HR MIN TEMP:  24; 6HR MAX TEMP:  63;

KEARNEY *      FAIR      61  34  36 NW17G24   29.77F
$$

NEZ011>018-030>034-042>045-281900-
NORTHEAST NEBRASKA

CITY           SKY/WX    TMP DP  RH WIND       PRES   REMARKS
NORFOLK        FAIR      47  34  60 S6        29.72F
6HR MIN TEMP:  28; 6HR MAX TEMP:  47;

ALBION         FAIR      52  34  51 W6        29.73F
BLAIR          FAIR      48  33  55 S8        29.76F
COLUMBUS *     FAIR      45  30  57 S3        29.76F
FREMONT        FAIR      47  33  59 SE5       29.77F
TEKAMAH        FAIR      44  33  65 S10       29.77F
6HR MIN TEMP:  31; 6HR MAX TEMP:  44;

$$

NEZ050>053-065>068-078-088>093-281900-
SOUTHEAST NEBRASKA

CITY           SKY/WX    TMP DP  RH WIND       PRES   REMARKS
LINCOLN        FAIR      49  33  54 CALM      29.78F
6HR MIN TEMP:  31; 6HR MAX TEMP:  50;

OMAHA EPPLEY   PTSUNNY   46  33  60 S10       29.78F
6HR MIN TEMP:  33; 6HR MAX TEMP:  46;

BEATRICE       FAIR      57  36  45 SW14      29.76F
FALLS CITY     FAIR      61  37  41 S15       29.76F
6HR MIN TEMP:  33; 6HR MAX TEMP:  61;

NEBRASKA CITY  FAIR      55  30  39 S14       29.75F
$$

NEZ044-045-051>053-067-281900-
OMAHA AREA

CITY           SKY/WX    TMP DP  RH WIND       PRES   REMARKS
OMAHA EPPLEY   PTSUNNY   46  33  60 S10       29.78F
6HR MIN TEMP:  33; 6HR MAX TEMP:  46;

BLAIR          FAIR      48  33  55 S8        29.76F
FREMONT        FAIR      47  33  59 SE5       29.77F
OFFUTT AFB     FAIR      48  34  57 SE8       29.76F
WAHOO          FAIR      48  32  54 S10       29.76F
$$



USA.gov is the U.S. government's official web portal to all federal, state and local government web resources and services.